"TOA5","MOW","CPU:UNC_MeetingWaters","DataHourly"
"TIMESTAMP","SondeTempC","SpCond","DOSat","DOmg","pH","Turb","BattVolt_Min"
"TS","","","","","","",""
"","Smp","Smp","Smp","Smp","Smp","Smp","Min"
"2004-09-01 00:00:00",23.1000003815,0.0120000001043,4.30000019073,0.370000004768,7.78000020981,151.899993896,12.5200004578
"2004-09-01 01:00:00",23.9300003052,0.186000004411,4.40000009537,0.370000004768,7.84000015259,982.0,12.5100002289
"2004-09-01 02:00:00",24.1299991608,0.10000000149,4.09999990463,0.340000003576,7.71000003815,1324.0,12.4899997711
"2004-09-01 03:00:00",23.7800006866,0.125,3.90000009537,0.330000013113,7.36000013351,777.0,12.4799995422
"2004-09-01 04:00:00",23.6200008392,0.136999994516,3.90000009537,0.330000013113,7.32999992371,721.0,12.470000267
"2004-09-01 05:00:00",23.4099998474,0.155000001192,3.90000009537,0.330000013113,7.40999984741,809.0,12.4499998093
"2004-09-01 06:00:00",23.2299995422,0.109999999404,3.90000009537,0.330000013113,7.46000003815,776.0,12.4399995804
"2004-09-01 07:00:00",23.0499992371,0.10000000149,3.90000009537,0.330000013113,7.5,690.799987793,12.4300003052
"2004-09-01 08:00:00",22.9599990845,0.104000002146,3.79999995232,0.330000013113,7.53000020981,575.900024414,12.4099998474
"2004-09-01 09:00:00",22.9099998474,0.112999998033,3.79999995232,0.330000013113,7.59000015259,449.0,12.4600000381
"2004-09-01 10:00:00",22.9699993134,0.119000002742,3.90000009537,0.330000013113,7.65000009537,354.799987793,13.0900001526
"2004-09-01 11:00:00",23.0400009155,0.152999997139,3.90000009537,0.340000003576,7.73999977112,318.299987793,12.6599998474
"2004-09-01 12:00:00",23.0400009155,0.17499999702,4.0,0.340000003576,7.80000019073,305.399993896,12.6300001144
"2004-09-01 13:00:00",23.0900001526,0.190999999642,4.0,0.340000003576,7.80999994278,223.699996948,12.720000267
"2004-09-01 14:00:00",23.1900005341,0.175999999046,4.0,0.340000003576,7.82999992371,191.199996948,13.0799999237
"2004-09-01 15:00:00",23.4799995422,0.172999992967,4.0,0.340000003576,7.84999990463,208.600006104,13.0500001907
"2004-09-01 16:00:00",23.5400009155,0.166999995708,4.0,0.340000003576,7.82000017166,314.0,13.0500001907
"2004-09-01 17:00:00",23.5699996948,0.173999994993,4.0,0.340000003576,7.78000020981,307.0,12.7700004578
"2004-09-01 18:00:00",23.5200004578,0.179000005126,4.0,0.340000003576,7.78000020981,219.399993896,12.6499996185
"2004-09-01 19:00:00",23.4699993134,0.180000007153,4.0,0.340000003576,7.76000022888,277.5,12.5900001526
"2004-09-01 20:00:00",23.3099994659,0.00200000009499,3.70000004768,0.319999992847,7.61000013351,258.299987793,12.5699996948
"2004-09-01 21:00:00",23.1599998474,0.0010000000475,3.59999990463,0.310000002384,7.76000022888,165.300003052,12.5500001907
"2004-09-01 22:00:00",23.0100002289,0.0010000000475,4.0,0.340000003576,7.67000007629,100.300003052,12.5399999619
"2004-09-01 23:00:00",22.8700008392,0.0010000000475,3.90000009537,0.340000003576,7.80999994278,62.0999984741,12.529999733
"2004-09-02 00:00:00",22.7299995422,0.0010000000475,3.90000009537,0.340000003576,7.76999998093,47.4000015259,12.5200004578
"2004-09-02 01:00:00",22.5499992371,0.0010000000475,3.90000009537,0.340000003576,7.80999994278,42.4000015259,12.5100002289
"2004-09-02 02:00:00",22.3799991608,0.0010000000475,3.70000004768,0.330000013113,7.80000019073,81.6999969482,12.4899997711
"2004-09-02 03:00:00",22.2299995422,0.0010000000475,3.70000004768,0.319999992847,7.80000019073,36.2999992371,12.470000267
"2004-09-02 04:00:00",22.1100006104,0.0010000000475,3.70000004768,0.319999992847,7.80000019073,25.1000003815,12.4499998093
"2004-09-02 05:00:00",21.8899993896,0.0010000000475,3.59999990463,0.319999992847,7.80999994278,17.1000003815,12.4300003052
"2004-09-02 06:00:00",21.7099990845,0.0010000000475,3.70000004768,0.319999992847,7.82000017166,15.8000001907,12.4200000763
"2004-09-02 07:00:00",21.5499992371,0.0010000000475,3.70000004768,0.319999992847,7.84000015259,14.8999996185,12.3900003433
"2004-09-02 08:00:00",21.4099998474,0.0010000000475,3.70000004768,0.319999992847,7.84000015259,13.8000001907,12.3999996185
"2004-09-02 09:00:00",21.3400001526,0.0010000000475,3.70000004768,0.330000013113,7.88000011444,12.5,12.5500001907
"2004-09-02 10:00:00",21.8799991608,0.0010000000475,3.79999995232,0.340000003576,7.92000007629,11.5,13.0200004578
"2004-09-02 11:00:00",22.7700004578,0.0,3.59999990463,0.310000002384,7.90999984741,10.8999996185,13.1000003815
"2004-09-02 12:00:00",22.3600006104,0.0,3.70000004768,0.319999992847,7.90000009537,11.0,13.0200004578
"2004-09-02 13:00:00",22.6299991608,0.0,4.0,0.34999999404,7.90999984741,11.1999998093,13.0600004196
"2004-09-02 14:00:00",23.2299995422,0.0,4.0,0.340000003576,7.94000005722,17.5,13.0500001907
"2004-09-02 15:00:00",23.2399997711,0.0,3.90000009537,0.330000013113,7.94000005722,31.3999996185,13.0399999619
"2004-09-02 16:00:00",22.9500007629,0.0,3.90000009537,0.330000013113,7.88000011444,38.7999992371,12.9799995422
"2004-09-02 17:00:00",22.8400001526,0.0,3.79999995232,0.330000013113,7.86999988556,38.2000007629,12.6599998474
"2004-09-02 18:00:00",22.7199993134,0.0,3.70000004768,0.319999992847,7.78999996185,35.0,12.6099996567
"2004-09-02 19:00:00",22.4699993134,0.0,3.59999990463,0.319999992847,7.78000020981,31.0,12.5699996948
"2004-09-02 20:00:00",22.2199993134,0.0,3.59999990463,0.310000002384,7.86999988556,26.7999992371,12.5500001907
"2004-09-02 21:00:00",22.0900001526,0.0,3.40000009537,0.300000011921,7.86000013351,24.0,12.5399999619
"2004-09-02 22:00:00",21.7000007629,0.0,3.40000009537,0.300000011921,7.84999990463,19.1000003815,12.529999733
"2004-09-02 23:00:00",21.3899993896,0.0,3.5,0.310000002384,7.90000009537,16.3999996185,12.5100002289
"2004-09-03 00:00:00",21.2800006866,0.0,3.59999990463,0.319999992847,7.90000009537,15.1999998093,12.5
"2004-09-03 01:00:00",21.0799999237,0.0,3.59999990463,0.319999992847,7.88999986649,15.6999998093,12.4899997711
"2004-09-03 02:00:00",20.9899997711,0.0,3.59999990463,0.319999992847,7.86999988556,16.6000003815,12.470000267
"2004-09-03 03:00:00",20.5799999237,0.0010000000475,3.59999990463,0.319999992847,7.88000011444,16.1000003815,12.4499998093
"2004-09-03 04:00:00",20.1599998474,0.0010000000475,3.70000004768,0.330000013113,7.92000007629,14.8999996185,12.4399995804
"2004-09-03 05:00:00",19.9699993134,0.0010000000475,3.70000004768,0.340000003576,7.90999984741,12.3000001907,12.4099998474
"2004-09-03 06:00:00",19.7000007629,0.0010000000475,3.79999995232,0.34999999404,8.01000022888,11.0,12.3900003433
"2004-09-03 07:00:00",19.8400001526,0.0010000000475,3.79999995232,0.34999999404,7.88999986649,10.1999998093,12.3599996567
"2004-09-03 08:00:00",19.8400001526,0.0010000000475,3.70000004768,0.340000003576,7.88999986649,9.19999980927,12.3500003815
"2004-09-03 09:00:00",19.9500007629,0.0010000000475,3.59999990463,0.330000013113,7.94999980927,9.19999980927,12.5600004196
"2004-09-03 10:00:00",20.3600006104,0.0010000000475,3.59999990463,0.319999992847,8.13000011444,8.60000038147,12.8400001526
"2004-09-03 11:00:00",20.8799991608,0.0010000000475,3.5,0.310000002384,7.94000005722,8.5,12.720000267
"2004-09-03 12:00:00",21.4300003052,0.0,3.40000009537,0.300000011921,7.96000003815,8.0,12.8599996567
"2004-09-03 13:00:00",21.7399997711,0.0,3.79999995232,0.330000013113,8.0,8.39999961853,13.1000003815
"2004-09-03 14:00:00",21.9599990845,0.0,3.90000009537,0.34999999404,8.02000045776,9.0,13.0699996948
"2004-09-03 15:00:00",22.6900005341,0.0,4.0,0.340000003576,7.98999977112,8.30000019073,13.0500001907
"2004-09-03 16:00:00",22.4899997711,0.0,3.90000009537,0.340000003576,7.96999979019,10.8000001907,13.0200004578
"2004-09-03 17:00:00",22.2000007629,0.0,4.0,0.34999999404,7.88999986649,12.1999998093,12.6599998474
"2004-09-03 18:00:00",22.3299999237,0.0,4.0,0.340000003576,7.98999977112,14.6000003815,12.6199998856
"2004-09-03 19:00:00",22.2099990845,0.0,3.90000009537,0.340000003576,8.07999992371,16.8999996185,12.5799999237
"2004-09-03 20:00:00",21.7299995422,0.0,3.79999995232,0.330000013113,8.34000015259,17.8999996185,12.5699996948
"2004-09-03 21:00:00",21.4899997711,0.0,3.5,0.310000002384,8.36999988556,21.2999992371,12.5500001907
"2004-09-03 22:00:00",21.4300003052,0.0,3.29999995232,0.289999991655,7.88999986649,21.2999992371,12.5399999619
"2004-09-03 23:00:00",21.2800006866,0.0,3.20000004768,0.280000001192,7.86000013351,18.6000003815,12.5200004578
"2004-09-04 00:00:00",21.0900001526,0.0010000000475,3.09999990463,0.280000001192,7.86999988556,17.8999996185,12.5100002289
"2004-09-04 01:00:00",20.8700008392,0.0010000000475,3.09999990463,0.270000010729,7.86999988556,16.7999992371,12.5
"2004-09-04 02:00:00",20.7000007629,0.0010000000475,3.09999990463,0.270000010729,7.98999977112,14.1000003815,12.4799995422
"2004-09-04 03:00:00",20.6399993896,0.0010000000475,3.20000004768,0.280000001192,8.02000045776,13.5,12.470000267
"2004-09-04 04:00:00",20.5300006866,0.0010000000475,3.29999995232,0.300000011921,8.02000045776,13.6999998093,12.4499998093
"2004-09-04 05:00:00",20.6100006104,0.0010000000475,3.29999995232,0.300000011921,7.88999986649,11.6000003815,12.4300003052
"2004-09-04 06:00:00",20.5499992371,0.0010000000475,3.29999995232,0.300000011921,7.88999986649,9.60000038147,12.4099998474
"2004-09-04 07:00:00",20.5599994659,0.0010000000475,3.40000009537,0.300000011921,7.94999980927,7.80000019073,12.3900003433
"2004-09-04 08:00:00",20.7000007629,0.0010000000475,3.40000009537,0.300000011921,8.06000041962,8.10000038147,12.3599996567
"2004-09-04 09:00:00",20.9599990845,0.0010000000475,3.29999995232,0.300000011921,8.19999980927,7.40000009537,12.4200000763
"2004-09-04 10:00:00",21.1000003815,0.0010000000475,3.29999995232,0.289999991655,8.21000003815,7.5,12.470000267
"2004-09-04 11:00:00",21.3899993896,0.0010000000475,3.29999995232,0.289999991655,8.07999992371,7.5,12.7700004578
"2004-09-04 12:00:00",21.8700008392,0.0010000000475,3.29999995232,0.289999991655,8.10999965668,6.80000019073,13.1099996567
"2004-09-04 13:00:00",22.9300003052,0.0,3.5,0.300000011921,8.05000019073,6.59999990463,13.0799999237
"2004-09-04 14:00:00",23.4300003052,0.0,3.79999995232,0.319999992847,8.09000015259,6.5,13.0500001907
"2004-09-04 15:00:00",24.1100006104,0.0,4.69999980927,0.389999985695,8.27000045776,6.69999980927,13.0200004578
"2004-09-04 16:00:00",23.1700000763,0.0,4.80000019073,0.409999996424,8.14000034332,9.0,13.0100002289
"2004-09-04 17:00:00",23.2099990845,0.0,4.90000009537,0.419999986887,8.44999980927,9.5,12.6499996185
"2004-09-04 18:00:00",23.2700004578,0.0,4.5,0.389999985695,7.42000007629,8.5,12.6199998856
"2004-09-04 19:00:00",22.8700008392,0.0,4.40000009537,0.379999995232,7.28999996185,7.59999990463,12.5799999237
"2004-09-04 20:00:00",22.5900001526,0.0,4.19999980927,0.370000004768,7.25,6.90000009537,12.5699996948
"2004-09-04 21:00:00",22.3500003815,0.0,4.0,0.34999999404,7.34999990463,7.5,12.5500001907
"2004-09-04 22:00:00",22.1000003815,0.0,3.70000004768,0.319999992847,7.48999977112,8.10000038147,12.5399999619
"2004-09-04 23:00:00",21.9799995422,0.0,3.40000009537,0.300000011921,7.55000019073,8.30000019073,12.529999733
"2004-09-05 00:00:00",21.9699993134,0.0,3.20000004768,0.280000001192,7.92999982834,7.80000019073,12.5100002289
"2004-09-05 01:00:00",21.7999992371,0.0010000000475,3.09999990463,0.280000001192,7.92000007629,7.09999990463,12.5
"2004-09-05 02:00:00",21.6299991608,0.0010000000475,3.09999990463,0.270000010729,7.90999984741,7.30000019073,12.4799995422
"2004-09-05 03:00:00",21.4699993134,0.0010000000475,3.0,0.259999990463,7.90999984741,8.60000038147,12.470000267
"2004-09-05 04:00:00",21.1599998474,0.0010000000475,2.90000009537,0.259999990463,7.92000007629,7.30000019073,12.4499998093
"2004-09-05 05:00:00",21.0300006866,0.0010000000475,2.90000009537,0.259999990463,8.03999996185,8.89999961853,12.4200000763
"2004-09-05 06:00:00",20.7900009155,0.0010000000475,2.79999995232,0.25,8.14999961853,6.5,12.3900003433
"2004-09-05 07:00:00",20.6200008392,0.0010000000475,2.79999995232,0.25,8.40999984741,7.59999990463,12.3699998856
"2004-09-05 08:00:00",20.6299991608,0.0010000000475,2.79999995232,0.25,8.02000045776,5.5,12.3500003815
"2004-09-05 09:00:00",20.8500003815,0.0010000000475,2.90000009537,0.259999990463,7.94000005722,4.59999990463,12.4099998474
"2004-09-05 10:00:00",21.2900009155,0.0010000000475,2.90000009537,0.259999990463,7.94000005722,4.69999980927,12.7899999619
"2004-09-05 11:00:00",22.9200000763,0.0,2.90000009537,0.25,7.98000001907,4.69999980927,13.1199998856
"2004-09-05 12:00:00",22.4500007629,0.0,3.09999990463,0.270000010729,8.25,4.59999990463,12.8100004196
"2004-09-05 13:00:00",23.6100006104,0.0,3.40000009537,0.289999991655,8.27999973297,4.80000019073,13.0500001907
"2004-09-05 14:00:00",24.2999992371,0.0,3.79999995232,0.319999992847,8.15999984741,4.09999990463,12.9899997711
"2004-09-05 15:00:00",24.5699996948,0.0,4.30000019073,0.360000014305,4.98999977112,3.90000009537,12.6999998093
"2004-09-05 16:00:00",24.0799999237,0.0,4.40000009537,0.370000004768,6.36000013351,3.79999995232,13.0
"2004-09-05 17:00:00",23.2000007629,0.0,4.30000019073,0.370000004768,8.36999988556,4.09999990463,12.6400003433
"2004-09-05 18:00:00",22.7199993134,0.0,4.19999980927,0.360000014305,7.98999977112,4.09999990463,12.6000003815
"2004-09-05 19:00:00",22.6000003815,0.0,4.0,0.34999999404,7.92999982834,4.69999980927,12.5799999237
"2004-09-05 20:00:00",22.5300006866,0.0,3.79999995232,0.330000013113,7.90999984741,5.59999990463,12.5600004196
"2004-09-05 21:00:00",22.3999996185,0.0,3.59999990463,0.310000002384,7.96999979019,6.0,12.5500001907
"2004-09-05 22:00:00",22.4500007629,0.0,3.40000009537,0.289999991655,8.10000038147,5.69999980927,12.529999733
"2004-09-05 23:00:00",22.3999996185,0.0,3.29999995232,0.289999991655,8.21000003815,4.5,12.529999733
"2004-09-06 00:00:00",22.3099994659,0.0,3.29999995232,0.280000001192,8.15999984741,4.30000019073,12.5200004578
"2004-09-06 01:00:00",22.2600002289,0.0,3.20000004768,0.280000001192,8.14999961853,3.79999995232,12.5
"2004-09-06 02:00:00",22.1499996185,0.0,3.29999995232,0.289999991655,8.09000015259,4.09999990463,12.4899997711
"2004-09-06 03:00:00",22.1200008392,0.0010000000475,3.20000004768,0.280000001192,8.17000007629,3.70000004768,12.470000267
"2004-09-06 04:00:00",22.0799999237,0.0010000000475,3.09999990463,0.270000010729,7.96000003815,3.90000009537,12.4499998093
"2004-09-06 05:00:00",22.0200004578,0.0010000000475,3.20000004768,0.280000001192,7.90000009537,3.90000009537,12.4300003052
"2004-09-06 06:00:00",22.0,0.0010000000475,3.09999990463,0.270000010729,7.92000007629,4.09999990463,12.3999996185
"2004-09-06 07:00:00",21.9899997711,0.0010000000475,3.09999990463,0.270000010729,7.92000007629,4.30000019073,12.3800001144
"2004-09-06 08:00:00",22.0599994659,0.0010000000475,3.20000004768,0.280000001192,8.02999973297,4.80000019073,12.3800001144
"2004-09-06 09:00:00",22.1399993896,0.0010000000475,3.20000004768,0.280000001192,7.94000005722,4.80000019073,12.4099998474
"2004-09-06 10:00:00",22.1000003815,0.0010000000475,3.40000009537,0.289999991655,7.94999980927,5.09999990463,12.5500001907
"2004-09-06 11:00:00",22.6599998474,0.0010000000475,3.40000009537,0.289999991655,7.94999980927,4.80000019073,12.7700004578
"2004-09-06 12:00:00",22.6499996185,0.0,3.5,0.300000011921,7.98000001907,5.5,13.1000003815
"2004-09-06 13:00:00",22.8600006104,0.231000006199,4.19999980927,0.360000014305,8.06999969482,7.59999990463,13.0100002289
"2004-09-06 14:00:00",23.1399993896,0.00300000002608,3.79999995232,0.330000013113,7.98999977112,9.39999961853,13.0500001907
"2004-09-06 15:00:00",24.1299991608,0.0010000000475,3.70000004768,0.310000002384,8.27000045776,14.6000003815,13.0200004578
"2004-09-06 16:00:00",25.0300006866,0.17499999702,4.19999980927,0.340000003576,7.75,97.4000015259,12.6400003433
"2004-09-06 17:00:00",25.0699996948,0.0630000010133,3.70000004768,0.310000002384,7.57000017166,750.0,12.7399997711
"2004-09-06 18:00:00",24.7999992371,0.0850000008941,3.5,0.289999991655,7.40999984741,539.200012207,12.5699996948
"2004-09-06 19:00:00",24.4099998474,0.118000000715,3.29999995232,0.280000001192,7.40000009537,631.900024414,12.5500001907
"2004-09-06 20:00:00",24.0799999237,0.149000003934,3.20000004768,0.270000010729,7.46999979019,566.5,12.529999733
"2004-09-06 21:00:00",23.7600002289,0.177000001073,3.20000004768,0.270000010729,7.53000020981,465.299987793,12.529999733
"2004-09-06 22:00:00",23.5100002289,0.197999998927,3.09999990463,0.270000010729,7.57999992371,406.5,12.5200004578
"2004-09-06 23:00:00",23.3400001526,0.130999997258,3.09999990463,0.259999990463,7.63000011444,364.600006104,12.5200004578
"2004-09-07 00:00:00",23.1499996185,0.130999997258,3.09999990463,0.259999990463,7.67000007629,307.0,12.5100002289
"2004-09-07 01:00:00",22.9899997711,0.143999993801,3.09999990463,0.259999990463,7.71999979019,198.699996948,12.4899997711
"2004-09-07 02:00:00",22.8500003815,0.171000003815,3.09999990463,0.259999990463,7.76000022888,141.800003052,12.470000267
"2004-09-07 03:00:00",22.75,0.0439999997616,3.0,0.259999990463,7.78000020981,93.3000030518,12.4499998093
"2004-09-07 04:00:00",22.6599998474,0.109999999404,2.90000009537,0.25,7.80999994278,71.0999984741,12.4399995804
"2004-09-07 05:00:00",22.5900001526,0.186000004411,3.0,0.259999990463,7.82999992371,47.2999992371,12.4200000763
"2004-09-07 06:00:00",22.5100002289,0.097000002861,3.0,0.259999990463,7.82000017166,33.0,12.3900003433
"2004-09-07 07:00:00",22.4599990845,0.00300000002608,2.79999995232,0.25,7.82999992371,25.6000003815,12.3699998856
"2004-09-07 08:00:00",22.4300003052,0.00200000009499,2.79999995232,0.239999994636,7.84999990463,20.6000003815,12.3699998856
"2004-09-07 09:00:00",22.4099998474,0.00200000009499,2.79999995232,0.239999994636,7.84000015259,17.2000007629,12.3599996567
"2004-09-07 10:00:00",22.4200000763,0.00200000009499,2.90000009537,0.25,7.88000011444,14.8000001907,12.3800001144
"2004-09-07 11:00:00",22.6700000763,0.317000001669,3.0,0.259999990463,7.76999998093,209.5,12.3699998856
"2004-09-07 12:00:00",23.7399997711,0.0810000002384,2.79999995232,0.230000004172,8.02000045776,449.5,12.4099998474
"2004-09-07 13:00:00",23.6100006104,0.108000002801,2.79999995232,0.239999994636,7.80000019073,350.299987793,12.5200004578
"2004-09-07 14:00:00",23.5499992371,0.134000003338,2.79999995232,0.239999994636,7.80999994278,318.799987793,12.6499996185
"2004-09-07 15:00:00",23.4400005341,0.158999994397,2.79999995232,0.239999994636,7.67999982834,331.899993896,12.5
"2004-09-07 16:00:00",23.4200000763,0.25799998641,2.90000009537,0.25,7.69999980927,466.899993896,12.3800001144
"2004-09-07 17:00:00",23.8400001526,0.168999999762,2.79999995232,0.239999994636,7.73000001907,316.5,12.3699998856
"2004-09-07 18:00:00",24.0100002289,0.119999997318,2.79999995232,0.230000004172,7.69000005722,293.0,12.3599996567
"2004-09-07 19:00:00",23.9300003052,0.127000004053,2.70000004768,0.230000004172,7.59000015259,307.0,12.3599996567
"2004-09-07 20:00:00",23.8500003815,0.145999997854,2.70000004768,0.230000004172,7.57000017166,177.5,12.3599996567
"2004-09-07 21:00:00",23.75,0.143999993801,2.70000004768,0.230000004172,7.53000020981,141.600006104,12.3599996567
"2004-09-07 22:00:00",23.6100006104,0.159999996424,2.70000004768,0.230000004172,7.55000019073,134.600006104,12.3500003815
"2004-09-07 23:00:00",23.4699993134,0.175999999046,2.70000004768,0.230000004172,7.59000015259,109.199996948,12.3400001526
"2004-09-08 00:00:00",23.3500003815,0.193000003695,2.70000004768,0.230000004172,7.57999992371,86.6999969482,12.3400001526
"2004-09-08 01:00:00",23.3099994659,0.233999997377,2.70000004768,0.230000004172,7.65999984741,109.0,12.3400001526
"2004-09-08 02:00:00",23.2999992371,0.209999993443,2.70000004768,0.230000004172,7.65999984741,104.599998474,12.3299999237
"2004-09-08 03:00:00",23.4200000763,0.119000002742,2.59999990463,0.219999998808,7.61999988556,223.5,12.3199996948
"2004-09-08 04:00:00",23.5300006866,0.0740000009537,2.59999990463,0.219999998808,7.67000007629,540.5,12.3199996948
"2004-09-08 05:00:00",23.5400009155,0.0850000008941,2.5,0.219999998808,7.51000022888,461.700012207,12.3199996948
"2004-09-08 06:00:00",23.5400009155,0.107000000775,2.5,0.219999998808,7.46999979019,438.399993896,12.3199996948
"2004-09-08 07:00:00",23.6700000763,0.0570000000298,2.5,0.209999993443,7.53000020981,1172.0,12.3199996948
"2004-09-08 08:00:00",23.5100002289,0.0920000001788,2.5,0.209999993443,7.40000009537,1308.0,12.3000001907
"2004-09-08 09:00:00",23.5,0.152999997139,2.59999990463,0.219999998808,7.46000003815,764.0,12.3199996948
"2004-09-08 10:00:00",23.5499992371,0.20000000298,2.59999990463,0.219999998808,7.53999996185,500.299987793,12.5100002289
"2004-09-08 11:00:00",23.6200008392,0.22499999404,2.59999990463,0.219999998808,7.59000015259,374.700012207,12.8599996567
"2004-09-08 12:00:00",23.7600002289,0.243000000715,2.59999990463,0.219999998808,7.61999988556,322.100006104,12.8599996567
"2004-09-08 13:00:00",23.8299999237,0.243000000715,2.59999990463,0.219999998808,7.63999986649,418.0,12.5600004196
"2004-09-08 14:00:00",25.1000003815,0.0750000029802,2.40000009537,0.20000000298,7.86000013351,1139.0,12.6499996185
"2004-09-08 15:00:00",24.7600002289,0.120999999344,2.5,0.209999993443,7.48000001907,810.0,12.8100004196
"2004-09-08 16:00:00",24.5300006866,0.162000000477,2.5,0.209999993443,7.48999977112,504.700012207,12.6300001144
"2004-09-08 17:00:00",24.3899993896,0.190999999642,2.5,0.209999993443,7.53000020981,397.0,12.7600002289
"2004-09-08 18:00:00",24.2399997711,0.21099999547,2.5,0.209999993443,7.55999994278,373.799987793,12.6099996567
"2004-09-08 19:00:00",24.0799999237,0.229000002146,2.5,0.209999993443,7.55999994278,291.0,12.5500001907
"2004-09-08 20:00:00",23.8799991608,0.25,2.40000009537,0.209999993443,7.63999986649,335.399993896,12.529999733
"2004-09-08 21:00:00",23.7199993134,0.273000001907,2.40000009537,0.209999993443,7.63999986649,208.899993896,12.5100002289
"2004-09-08 22:00:00",23.5699996948,0.270999997854,2.40000009537,0.20000000298,7.63000011444,187.100006104,12.4899997711
"2004-09-08 23:00:00",23.4599990845,0.273000001907,2.40000009537,0.209999993443,7.61000013351,180.199996948,12.470000267
"2004-09-09 00:00:00",23.3400001526,0.28900000453,2.40000009537,0.209999993443,7.65000009537,158.399993896,12.4600000381
"2004-09-09 01:00:00",23.2000007629,0.284999996424,2.40000009537,0.209999993443,7.67000007629,134.199996948,12.4499998093
"2004-09-09 02:00:00",23.0699996948,0.280999988317,2.40000009537,0.209999993443,7.69000005722,126.300003052,12.4399995804
"2004-09-09 03:00:00",22.9799995422,0.194999992847,2.40000009537,0.209999993443,7.67999982834,112.300003052,12.4200000763
"2004-09-09 04:00:00",22.8899993896,0.168999999762,2.40000009537,0.209999993443,7.67999982834,101.699996948,12.4200000763
"2004-09-09 05:00:00",22.8099994659,0.16099999845,2.40000009537,0.209999993443,7.69000005722,85.0999984741,12.3999996185
"2004-09-09 06:00:00",22.7199993134,0.157000005245,2.40000009537,0.209999993443,7.69999980927,78.3000030518,12.3900003433
"2004-09-09 07:00:00",22.6599998474,0.157000005245,2.40000009537,0.209999993443,7.69999980927,71.5999984741,12.3800001144
"2004-09-09 08:00:00",22.6000003815,0.165000006557,2.40000009537,0.209999993443,7.71000003815,60.2999992371,12.3599996567
"2004-09-09 09:00:00",22.6100006104,0.202999994159,2.40000009537,0.209999993443,7.73000001907,61.2000007629,12.3999996185
"2004-09-09 10:00:00",22.7600002289,0.212999999523,2.40000009537,0.209999993443,7.76000022888,46.5999984741,13.0900001526
"2004-09-09 11:00:00",23.0400009155,0.196999996901,2.5,0.219999998808,7.80000019073,67.0999984741,13.029999733
"2004-09-09 12:00:00",23.2800006866,0.187999993563,2.5,0.209999993443,7.80000019073,124.5,12.7700004578
"2004-09-09 13:00:00",23.3899993896,0.188999995589,2.5,0.209999993443,7.78000020981,154.100006104,12.8599996567
"2004-09-09 14:00:00",23.7399997711,0.170000001788,2.5,0.209999993443,7.78000020981,134.5,13.0